This is the latest recevied weather packets stored in our database for station/object W0RMT-13. If no packets are shown the sender has not sent any weather packets the latest 10 day(s).
| Time | Temp. | Humidity | Pressure | Rain* | Wind** | Luminosity | Snow |
|---|---|---|---|---|---|---|---|
| 1778163059 | 11.67° C | 45% | 1015.4 hPa | 0 mm | - | 278 W/m² | - |
| 1778162450 | 11.11° C | 44% | 1015.4 hPa | 0 mm | - | 293 W/m² | - |
| 1778161759 | 10° C | 47% | 1015 hPa | 0 mm | - | 261 W/m² | - |
| 1778161112 | 9.44° C | 49% | 1015 hPa | 0 mm | - | 234 W/m² | - |
| 1778160489 | 8.33° C | 49% | 1015.4 hPa | 0 mm | - | 132 W/m² | - |
| 1778159819 | 7.78° C | 53% | 1015 hPa | 0 mm | - | 127 W/m² | - |
| 1778159157 | 7.22° C | 54% | 1015 hPa | 0 mm | - | 107 W/m² | - |
| 1778158474 | 6.67° C | 55% | 1015 hPa | 0 mm | - | 80 W/m² | - |
| 1778157844 | 5.56° C | 59% | 1014.7 hPa | 0 mm | - | 40 W/m² | - |
| 1778157217 | 5.56° C | 61% | 1014.7 hPa | 0 mm | - | 41 W/m² | - |
| 1778156678 | 5.56° C | 62% | 1014.7 hPa | 0 mm | - | 12 W/m² | - |
| 1778155996 | 5.56° C | 66% | 1014.7 hPa | 0 mm | - | 8 W/m² | - |
| 1778155374 | 6.11° C | 61% | 1014.2 hPa | 0 mm | - | 3 W/m² | - |
| 1778154694 | 6.11° C | 59% | 1014.7 hPa | 0 mm | - | 0 W/m² | - |
| 1778154068 | 5° C | 55% | 1014.7 hPa | 0 mm | - | 0 W/m² | - |
| 1778153412 | 3.33° C | 60% | 1014.2 hPa | 0 mm | - | 0 W/m² | - |
| 1778152730 | 3.33° C | 74% | 1014.7 hPa | 0 mm | - | 0 W/m² | - |
| 1778152066 | 3.33° C | 74% | 1014.7 hPa | 0 mm | - | 0 W/m² | - |
| 1778151454 | 3.89° C | 75% | 1014.7 hPa | 0 mm | - | 0 W/m² | - |
| 1778150798 | 4.44° C | 73% | 1014.7 hPa | 0 mm | - | 0 W/m² | - |
| 1778150175 | 5° C | 70% | 1014.7 hPa | 0 mm | - | 0 W/m² | - |
| 1778149554 | 5° C | 66% | 1014.7 hPa | 0 mm | - | 0 W/m² | - |
| 1778148934 | 4.44° C | 66% | 1014.7 hPa | 0 mm | - | 0 W/m² | - |
| 1778148232 | 3.33° C | 63% | 1015 hPa | 0 mm | - | 0 W/m² | - |
| 1778147545 | 3.33° C | 71% | 1015 hPa | 0 mm | - | 0 W/m² | - |
* Rain latest hour (hover to see other rain measurements)
** Current wind speed in m/s (hover to see current wind gust speed)